Terminal Aerodrome Forecast
Issued by NWS Denver/Boulder, CO

Home | Current Version | Previous Version | Text Only | Print | Product List | Glossary On
Versions: 1 2 3 4 5 6 7 8 9 10 11 12 13 14 15 16 17 18 19 20 21 22 23 24 25 26 27 28 29 30 31 32 33 34 35 36 37 38 39 40 41 42 43 44 45 46
000
FTUS45 KBOU 022020 AAE
TAFDEN
TAF AMD
KDEN 022020Z 0220/0324 10008KT 5SM -SN BR SCT023 OVC035
      TEMPO 0220/0221 3SM -SN BR SCT013 BKN023
     FM022100 09008KT P6SM VCSH SCT020 BKN035 OVC050
      TEMPO 0221/0223 1SM -SN BKN020
     FM022300 10008KT P6SM VCSH BKN030 OVC050
      TEMPO 0223/0303 5SM -SN BKN020
     FM030300 16008KT P6SM SCT050 BKN090
     FM030600 18007KT P6SM FEW090 SCT200
     FM031400 23005KT P6SM SCT200
     FM032100 30005KT P6SM SCT200=

USA.gov is the U.S. government's official web portal to all federal, state and local government web resources and services.